Weather History for Paris, IL

Change the Weather History Date:

Monday, December 17, 2012

  Actual Average (KHUF) Record (KHUF)
Temperature  
Mean Temperature 38 °F 31 °F  
Max Temperature 41 °F 39 °F 60 °F (2006)
Min Temperature 35 °F 23 °F -12 °F (1989)
Degree Days  
Heating Degree Days 27 34  
Month to date heating degree days 536  
Since 1 July heating degree days 1614  
Cooling Degree Days 0 0  
Month to date cooling degree days 0  
Year to date cooling degree days 993  
Moisture  
Dew Point 37 °F    
Average Humidity 93    
Maximum Humidity 97    
Minimum Humidity 89    
Precipitation  
Precipitation 0.04 in 0.08 in 0.77 in (1961)
Month to date precipitation 1.42  
Year to date precipitation 43.53  
Sea Level Pressure  
Sea Level Pressure 29.71 in    
Wind  
Wind Speed 4 mph (NNW)    
Max Wind Speed 10 mph    
Max Gust Speed -    
Visibility 6 miles    
Events Rain , Thunderstorm    
T = Trace of Precipitation, MM = Missing Value Source: NWS Daily Summary

Daily Weather History Graph

Daily Weather History Graph

Search for Another Location

Airport:

Trip Planner

Search our weather history database for the weather conditions in past years. The results will help you decide how hot, cold, wet, or windy it might be!

Date:

Astronomy

Dec. 17, 2012 Rise Set
Actual Time 7:06 AM CST 4:28 PM CST
Civil Twilight 6:35 AM CST 4:58 PM CST
Nautical Twilight 6:01 AM CST 5:32 PM CST
Astronomical Twilight 5:28 AM CST 6:05 PM CST
Moon 10:15 AM CST (12/17) 9:48 PM CST (12/17)
Length of Visible Light 10h 22m
Length of Day
9h 21m
Waxing Crescent, 25% of the Moon is Illuminated
Dec 17
Waxing Crescent
Dec 19
First Quarter
Dec 28
Full
Jan 4
Last Quarter
Jan 11
New

Hourly Weather History & Observations

Time (CST) Temp. Windchill Dew Point Humidity Pressure Visibility Wind Dir Wind Speed Gust Speed Precip Events Conditions
12:15 AM 41.4 °F 39.4 °F 39.2 °F 92% 29.75 in 5.0 mi NNW 3.5 mph - N/A   Overcast
12:35 AM 41.2 °F 39.2 °F 39.0 °F 92% 29.75 in 5.0 mi NW 3.5 mph - N/A   Overcast
12:55 AM 41.0 °F 37.1 °F 38.5 °F 91% 29.76 in 7.0 mi WNW 5.8 mph - N/A   Overcast
1:15 AM 40.5 °F 37.3 °F 38.3 °F 92% 29.76 in 5.0 mi NW 4.6 mph - N/A   Overcast
1:35 AM 40.1 °F 36.1 °F 37.9 °F 92% 29.76 in 5.0 mi NW 5.8 mph - N/A   Overcast
1:55 AM 39.7 °F 36.5 °F 37.6 °F 92% 29.76 in 5.0 mi NW 4.6 mph - N/A   Overcast
2:15 AM 39.6 °F - 37.4 °F 92% 29.76 in 7.0 mi Calm Calm - N/A   Overcast
2:35 AM 39.7 °F 36.5 °F 37.4 °F 91% 29.76 in 7.0 mi NW 4.6 mph - N/A   Overcast
2:55 AM 39.2 °F 37.0 °F 37.4 °F 93% 29.75 in 7.0 mi NW 3.5 mph - N/A   Overcast
3:15 AM 39.7 °F - 37.0 °F 90% 29.76 in 7.0 mi Calm Calm - N/A   Overcast
3:35 AM 39.6 °F 37.4 °F 36.9 °F 90% 29.75 in 7.0 mi NW 3.5 mph - N/A   Overcast
3:55 AM 39.6 °F - 36.7 °F 89% 29.74 in 7.0 mi Calm Calm - N/A   Overcast
4:15 AM 39.6 °F - 36.5 °F 89% 29.73 in 7.0 mi Calm Calm - N/A   Overcast
4:35 AM 39.6 °F - 36.7 °F 89% 29.73 in 7.0 mi Calm Calm - N/A   Overcast
4:55 AM 39.4 °F - 36.5 °F 89% 29.73 in 7.0 mi Calm Calm - N/A   Overcast
5:15 AM 39.2 °F - 36.5 °F 90% 29.72 in 7.0 mi Calm Calm - N/A   Overcast
5:35 AM 39.2 °F - 36.5 °F 90% 29.72 in 7.0 mi Calm Calm - N/A   Overcast
5:55 AM 39.0 °F - 36.5 °F 91% 29.72 in 7.0 mi Calm Calm - N/A   Overcast
6:15 AM 39.0 °F - 36.7 °F 91% 29.72 in 7.0 mi Calm Calm - N/A   Mostly Cloudy
6:35 AM 39.2 °F - 36.9 °F 91% 29.73 in 5.0 mi Calm Calm - N/A   Overcast
6:55 AM 39.2 °F - 37.0 °F 92% 29.72 in 5.0 mi Calm Calm - N/A   Overcast
7:15 AM 39.2 °F - 37.2 °F 93% 29.72 in 5.0 mi Calm Calm - N/A   Overcast
7:35 AM 39.6 °F - 37.4 °F 92% 29.72 in 5.0 mi Calm Calm - N/A   Overcast
7:55 AM 39.4 °F - 37.0 °F 91% 29.72 in 5.0 mi Calm Calm - N/A   Overcast
8:15 AM 39.6 °F - 37.4 °F 92% 29.72 in 5.0 mi Calm Calm - N/A   Overcast
8:35 AM 39.7 °F - 37.4 °F 91% 29.72 in 4.0 mi Calm Calm - N/A   Overcast
8:55 AM 39.9 °F 36.7 °F 37.4 °F 91% 29.72 in 5.0 mi North 4.6 mph - N/A   Overcast
9:15 AM 40.1 °F 36.1 °F 37.4 °F 90% 29.71 in 4.0 mi North 5.8 mph - N/A   Overcast
9:35 AM 40.1 °F 36.1 °F 37.4 °F 90% 29.71 in 4.0 mi North 5.8 mph - N/A   Overcast
9:55 AM 40.1 °F 36.9 °F 37.6 °F 91% 29.71 in 4.0 mi North 4.6 mph - N/A   Overcast
10:15 AM 40.1 °F - 37.6 °F 91% 29.72 in 3.0 mi Calm Calm - N/A   Overcast
10:35 AM 40.1 °F 38.0 °F 37.6 °F 91% 29.71 in 3.0 mi NNE 3.5 mph - N/A   Overcast
10:55 AM 40.1 °F 38.0 °F 37.9 °F 92% 29.70 in 5.0 mi NNE 3.5 mph - N/A   Drizzle
11:15 AM 40.1 °F 36.1 °F 37.9 °F 92% 29.68 in 5.0 mi North 5.8 mph - N/A Rain Light Rain
11:35 AM 39.9 °F 36.7 °F 38.1 °F 93% 29.67 in 3.0 mi NNE 4.6 mph - N/A Rain , Thunderstorm Light Thunderstorms and Rain
11:55 AM 40.1 °F 36.9 °F 38.5 °F 94% 29.66 in 4.0 mi North 4.6 mph - 0.01 in Rain Rain
12:15 PM 39.9 °F 34.5 °F 38.5 °F 95% 29.65 in 7.0 mi North 8.1 mph - N/A   Drizzle
12:35 PM 39.7 °F 34.9 °F 38.3 °F 95% 29.64 in 10.0 mi North 6.9 mph - N/A   Drizzle
12:55 PM 40.1 °F 36.1 °F 38.5 °F 94% 29.63 in 10.0 mi NNE 5.8 mph - N/A   Overcast
1:15 PM 40.1 °F 36.9 °F 38.5 °F 94% 29.63 in 10.0 mi North 4.6 mph - N/A   Overcast
1:35 PM 39.9 °F 36.7 °F 38.3 °F 94% 29.63 in 10.0 mi North 4.6 mph - N/A   Light Drizzle
1:55 PM 39.9 °F 35.8 °F 38.1 °F 93% 29.63 in 10.0 mi North 5.8 mph - N/A Rain Light Rain
2:35 PM 39.6 °F - 37.8 °F 93% 29.64 in 10.0 mi Calm Calm - 0.01 in Rain Rain
2:55 PM 39.4 °F 37.2 °F 37.8 °F 94% 29.64 in 10.0 mi North 3.5 mph - 0.02 in Rain Rain
3:15 PM 39.4 °F 37.2 °F 37.8 °F 94% 29.64 in 10.0 mi NNW 3.5 mph - 0.01 in Rain Light Rain
3:35 PM 39.2 °F - 37.8 °F 95% 29.63 in 10.0 mi Calm Calm - 0.01 in   Light Drizzle
3:55 PM 39.2 °F 37.0 °F 37.6 °F 94% 29.64 in 10.0 mi NNW 3.5 mph - 0.01 in   Overcast
6:35 PM 38.3 °F 33.9 °F 36.1 °F 92% 29.68 in 7.0 mi NNW 5.8 mph - N/A   Overcast
6:55 PM 38.3 °F 34.8 °F 36.0 °F 91% 29.69 in 7.0 mi NNW 4.6 mph - N/A   Overcast
7:15 PM 38.3 °F 34.8 °F 36.0 °F 91% 29.70 in 7.0 mi NW 4.6 mph - N/A   Overcast
7:35 PM 37.6 °F 31.6 °F 35.8 °F 93% 29.70 in 5.0 mi NW 8.1 mph - N/A   Overcast
7:55 PM 37.4 °F 32.8 °F 35.8 °F 94% 29.71 in 2.0 mi NW 5.8 mph - N/A   Overcast
8:15 PM 37.0 °F 31.6 °F 35.8 °F 95% 29.71 in 5.0 mi NW 6.9 mph - N/A   Light Drizzle
8:35 PM 37.0 °F 29.8 °F 35.8 °F 95% 29.71 in 10.0 mi WNW 10.4 mph - N/A   Light Drizzle
8:55 PM 36.9 °F 30.1 °F 35.6 °F 95% 29.72 in 10.0 mi NW 9.2 mph - N/A   Drizzle
9:15 PM 36.5 °F 29.7 °F 35.1 °F 95% 29.72 in 5.0 mi WNW 9.2 mph - N/A Rain Rain
9:35 PM 35.8 °F 28.8 °F 34.7 °F 96% 29.73 in 5.0 mi WNW 9.2 mph - N/A   Drizzle
9:55 PM 36.0 °F 29.0 °F 34.9 °F 96% 29.73 in 4.0 mi WNW 9.2 mph - N/A Rain Rain
10:15 PM 35.6 °F 28.6 °F 34.7 °F 97% 29.74 in 7.0 mi WNW 9.2 mph - N/A   Light Drizzle
10:35 PM 35.2 °F 28.1 °F 34.2 °F 96% 29.74 in 5.0 mi WNW 9.2 mph - N/A   Drizzle
10:55 PM 35.4 °F 29.0 °F 34.2 °F 95% 29.75 in 5.0 mi WNW 8.1 mph - N/A Rain Light Rain
11:15 PM 35.1 °F 28.6 °F 34.0 °F 96% 29.75 in 7.0 mi NW 8.1 mph - N/A Rain Light Rain
11:35 PM 35.4 °F 28.4 °F 34.3 °F 96% 29.76 in 7.0 mi WNW 9.2 mph - N/A   Overcast
11:55 PM 35.6 °F 28.6 °F 34.3 °F 95% 29.76 in 5.0 mi WNW 9.2 mph - N/A   Overcast